Los Angeles City Registered Businesses
NAICS 541510 · · Zip 90042

Jurisdiction: Los Angeles
Source: City of Los Angeles, Office of Finance

This dataset includes 509 thousand business entities registered with Los Angeles City, Office of Finance. Each business is registered with location account number, legal business name, doing business as (DBA) name, location, mailing address, industry code, business start date, etc.

Zip 90042 · NAICS 541510 · · Search Result

Business Name Office Address Start/End Date
Yolanda Charlo Rodriguez 6020 La Prada Street Unit #7, Los Angeles, CA 90042-2045 2019-11-15 ~ 2020-12-19
Tara Avery 1031 El Paso Drive, Los Angeles, CA 90042-3120 2019-01-01
Daniel W. Locke 258 N Avenue 49 Apt #a, Los Angeles, CA 90042-3884 2019-01-01
Design Is Blank LLC 1070 Milwaukee Avenue, Los Angeles, CA 90042-1908 2018-07-23
The Hemmings 368 N 57 Avenue, Los Angeles, CA 90042-0042 2018-01-16
Jeremy Raskin 4804 1/2 York Blvd, Los Angeles, CA 90042-1637 2018-01-01
Leverage Point Corporation 6172 Mount Angelus Drive, Los Angeles, CA 90042-3524 2018-01-01
Simple Casual LLC 205 S Avenue 63, Los Angeles, CA 90042-3605 2017-10-01
Daniel Au 941 Fortune Way, Los Angeles, CA 90042-1524 2017-04-01
Opihi Creative/Midnight Scribblings · Code & Calligraphy LLC 5428 Monterey Road, Los Angeles, CA 90042-4946 2017-01-27
Evelyn Masso 327 S Avenue 60 Apt #101, Los Angeles, CA 90042-4257 2016-02-01
Juan Hernandez 6215 Roy Street, Los Angeles, CA 90042-2013 2016-01-01 ~ 2018-12-31
American Design and Development LLC 5520 Nordyke Street, Los Angeles, CA 90042-1140 2016-01-01
Proper Design Company · Leonardo Chavez 5042 Range View Avenue, Los Angeles, CA 90042-1736 2015-11-04
Chad-Louis Mananzan Alapag 1702 N Avenue 55, Los Angeles, CA 90042-1109 2015-04-01
Benjamin Shafer 280 S Avenue 55 #4, Los Angeles, CA 90042-4644 2013-09-01
Zincom Computer Solutions · Michael Zinzun Jr 140 Roselawn Place, Los Angeles, CA 90042-4625 2013-08-02 ~ 2014-12-31
Joshua Kinne 4260 Via Arbolada Unit #303, Los Angeles, CA 90042-5181 2012-01-01
Pehr Lovano Hovey 1925 Phillips Way, Los Angeles, CA 90042-1040 2011-02-01
Mashimo Photography · Akane Mashimo 904 N Avenue 67, Los Angeles, CA 90042-3004 2010-08-26
Idealistics Inc 221 Thorne Street # 5, Los Angeles, CA 90042-5600 2009-08-01
Cabs Inc · Rodney B Whitsett 898 Temple Terrace #323, Los Angeles, CA 90042-5034 2008-04-07
Nicholas B Mendoza 5433 Abbott Place #16, Los Angeles, CA 90042-3356 2007-12-01
One V8, LLC 220 N Avenue 63, Los Angeles, CA 90042-2727 2007-01-01 ~ 2011-12-31
Florence Ng 4080 Via Marisol Apt #230, Los Angeles, CA 90042-5158 2006-07-01
Butter · Luis Gomez 364 N Avenue 53 Unit #1, Los Angeles, CA 90042-3354 2006-06-12
Amanda Mullins 127 1/2 S Avenue 63, Los Angeles, CA 90042-3625 2006-06-06
David Rickard 101 Bridewell Street #332, Los Angeles, CA 90042-3790 2006-01-13
Salt Studios Inc 1370 N Avenue 57, Los Angeles, CA 90042-1974 2005-10-01
Paul A Dupont 729 Onarga Avenue, Los Angeles, CA 90042-1217 2005-07-01
J.r. Halterlein Consulting · Justin R. Halterlein 6147 Burwood Avenue, Los Angeles, CA 90042-1321 2004-08-15
Digital Ink · Ismael Manny Carlo 6634 Elgin Street, Los Angeles, CA 90042-2910 2001-06-25
George Kevin Fry 6243 Crestwood Way, Los Angeles, CA 90042-1351 2001-01-01
Art Gallery Art Instructor Independent Artist | Creative Artist 1 Promoter of Fine Arts- Gallerist · Larissa Elizabeth Bank 5748 Aldama Street, Los Angeles, CA 90042-2541 1999-10-15
Steven W. Bosanszki 6305 Lomitas Drive, Los Angeles, CA 90042-4320 2016-10-01 ~ 2020-12-31
Jjb Computer Consulting Services, LLC 4947 Marmion Way, Los Angeles, CA 90042-4413 2016-01-15
Jeffrey Mauricio Morales 5827 Tipton Way, Los Angeles, CA 90042-1255 2015-08-10
Brian G Davila 312 N Avenue 50, Los Angeles, CA 90042-3803 2014-09-01
Software Algo Solution, LLC 6010 El Mio Drive, Los Angeles, CA 90042-3414 2014-03-17
Recording.la · Adam Borecki 6225 Pine Crest Drive, Los Angeles, CA 90042-4346 2013-08-19
Steven P Campos 6281 Pine Crest Drive, Los Angeles, CA 90042-4346 2012-01-17 ~ 2012-05-17
Ryland R Aldrich 1508 N Avenue 50, Los Angeles, CA 90042-1722 2011-01-01
Bradford A Berling 5712 Buchanan Street, Los Angeles, CA 90042-2520 2009-01-01
John Green 1008 Easy Street, Los Angeles, CA 90042-1522 2007-07-01
Cammie Staros · Alice Carmichael Staros 6178 Springvale Drive, Los Angeles, CA 90042-2034 2007-01-01
John Wildanger 5161 Range View Avenue, Los Angeles, CA 90042-1737 2006-12-10
Jack R Marquette 6151 Outlook Avenue, Los Angeles, CA 90042-3529 2002-05-07 ~ 2009-12-31
Sightmedia · Brian Blevins 6011 Pine Crest Drive, Los Angeles, CA 90042-4342 1999-10-12